Home > Weather > Toulouse > Past weeks

Flag for France Past Weather in Toulouse, Midi-Pyrénées, France — Yesterday and Last 2 Weeks

Now
57 °F

Mostly cloudy.


Feels Like: 53 °F
Forecast: 54 / 71 °F
Wind: 17 mph from West

Location: Toulouse / Blagnac

Current Time: Jun 1, 2016 at 5:53:27 AM

Latest Report: Jun 1, 2016 at 5:30 AM


Visibility: N/A

Pressure: 30.09 "Hg

Humidity: 77%

Dew Point: 50 °F

Location of ToulouseLocation

Past Weather in Toulouse — Graph

°F

Toulouse Temperature Yesterday

Maximum temperature yesterday: 63 °F (at 4:00 PM)
Minimum temperature yesterday: 55 °F (at 1:30 AM)
Average temperature yesterday: 59 °F

High & Low Weather Summary for the Past Weeks

 TemperatureHumidityPressure
High82 °F (May 21, 3:30 PM)94% (May 18, 5:00 AM)30.24 "Hg (May 18, 5:00 AM)
Low46 °F (May 18, 6:30 AM)31% (May 24, 7:00 PM)29.77 "Hg (May 28, 5:00 PM)
Average61 °F70%30.00 "Hg
* Reported May 17 4:00 AM — Jun 1 4:30 AM, Toulouse, Weather by CustomWeather, © 2016

Note: Actual official high and low records may vary slightly from our data, if they occured in-between our weather recording intervals... More about our weather records

Advertising

Toulouse Weather History for the Previous 24 Hours

Scroll right to see more
 ConditionsComfort  
Time TempWeatherWind HumidityBarometerVisibility
4:30 AM
Wed, Jun 1
55 °FPassing clouds.18 mph82%30.09 "HgN/A
4:00 AM55 °FPassing clouds.20 mph82%30.09 "HgN/A
3:30 AM57 °FPassing clouds.18 mph77%30.09 "HgN/A
3:00 AM57 °FClear.21 mph77%30.09 "Hg10 mi
2:30 AM57 °FPassing clouds.22 mph77%30.09 "HgN/A
2:00 AM57 °FMostly cloudy.18 mph77%30.12 "HgN/A
1:30 AM57 °FPassing clouds.20 mph77%30.12 "HgN/A
1:00 AM59 °FMostly cloudy.22 mph77%30.12 "HgN/A
12:30 AM59 °FOvercast.22 mph77%30.12 "HgN/A
12:00 AM59 °FMostly cloudy.20 mph77%30.12 "HgN/A
11:30 PM
Tue, May 31
59 °FOvercast.18 mph77%30.12 "HgN/A
11:00 PM59 °FClear.20 mph77%30.12 "Hg10 mi
10:30 PM61 °FMostly cloudy.21 mph72%30.12 "HgN/A
10:00 PM61 °FBroken clouds.17 mph72%30.09 "HgN/A
9:30 PM61 °FPartly sunny.16 mph72%30.09 "HgN/A
9:00 PM61 °FPartly sunny.18 mph72%30.09 "HgN/A
8:30 PM63 °FBroken clouds.20 mph68%30.09 "HgN/A
8:00 PM63 °FScattered clouds.21 mph68%30.09 "HgN/A
7:30 PM63 °FPartly sunny.20 mph73%30.09 "HgN/A
7:00 PM63 °FBroken clouds.18 mph73%30.07 "HgN/A
6:30 PM63 °FMostly cloudy.18 mph73%30.07 "HgN/A
6:00 PM63 °FBroken clouds.17 mph77%30.07 "HgN/A
5:30 PM63 °FPartly sunny.22 mph73%30.07 "HgN/A
5:00 PM63 °FPartly sunny.18 mph77%30.07 "HgN/A
4:30 PM63 °FBroken clouds.16 mph83%30.09 "HgN/A
4:00 PM63 °FPartly sunny.14 mph83%30.09 "HgN/A
3:30 PM61 °FLight rain. Broken clouds.12 mph88%30.09 "HgN/A
3:00 PM59 °FLight rain. Broken clouds.16 mph88%30.09 "HgN/A
2:30 PM61 °FLight rain. Partly sunny.10 mph88%30.09 "Hg6 mi
2:00 PM59 °FRain. Fog.10 mph88%30.09 "Hg3 mi
1:30 PM59 °FLight rain. Partly sunny.16 mph88%30.09 "HgN/A
1:00 PM59 °FRain. Partly sunny.15 mph88%30.09 "HgN/A
12:30 PM57 °FLight rain. Mostly cloudy.15 mph94%30.09 "Hg5 mi
12:00 PM59 °FLight rain. Fog.17 mph88%30.09 "Hg3 mi
11:30 AM59 °FRain. Fog.14 mph88%30.09 "Hg3 mi
11:00 AM59 °FLight rain. Partly sunny.15 mph82%30.09 "Hg5 mi
10:30 AM59 °FMostly cloudy.15 mph82%30.09 "HgN/A
10:00 AM59 °FBroken clouds.15 mph82%30.09 "HgN/A
9:30 AM57 °FLight rain. Broken clouds.16 mph88%30.09 "HgN/A
9:00 AM57 °FDrizzle. Broken clouds.17 mph88%30.09 "HgN/A
8:30 AM57 °FMostly cloudy.15 mph88%30.09 "HgN/A
8:00 AM57 °FOvercast.15 mph88%30.07 "HgN/A
7:30 AM57 °FDrizzle. Mostly cloudy.15 mph88%30.07 "HgN/A
7:00 AM55 °FPartly cloudy.15 mph94%30.07 "HgN/A
6:30 AM55 °FLight rain. Mostly cloudy.13 mph94%30.07 "HgN/A
6:00 AM55 °FDrizzle. Mostly cloudy.14 mph94%30.07 "HgN/A
5:30 AM55 °FLight rain. Mostly cloudy.14 mph94%30.07 "HgN/A
5:00 AM55 °FLight rain. Partly cloudy.13 mph94%30.07 "HgN/A
Weather by CustomWeather, © 2016

See weather overviewHow to use our weather pages